TimePDT,TemperatureF,Dew PointF,Humidity,Sea Level PressureIn,VisibilityMPH,Wind Direction,Wind SpeedMPH,Gust SpeedMPH,PrecipitationIn,Events,Conditions,WindDirDegrees,DateUTC
12:00 AM,51.8,50.0,94,30.00,8.0,East,9.2,-,N/A,,Overcast,100,2012-11-02 07:00:00
1:00 AM,51.8,50.0,94,30.00,8.0,East,10.4,-,N/A,,Overcast,90,2012-11-02 08:00:00
2:00 AM,51.8,50.0,94,30.01,8.0,East,9.2,-,N/A,,Overcast,90,2012-11-02 09:00:00
3:00 AM,51.8,50.0,94,30.01,8.0,East,11.5,-,N/A,,Overcast,90,2012-11-02 10:00:00
4:00 AM,51.8,50.0,94,30.01,8.0,East,11.5,-,N/A,,Overcast,90,2012-11-02 11:00:00
5:00 AM,52,50,90,30.02,7,East,8.1,,,,Partly Cloudy,90,2012-11-02 12:00:00
5:00 AM,51.8,50.0,94,30.02,8.0,East,6.9,-,N/A,,Overcast,100,2012-11-02 12:00:00
6:00 AM,53.6,50.0,88,30.02,8.0,ESE,6.9,-,N/A,,Overcast,110,2012-11-02 13:00:00
7:00 AM,53.6,50.0,88,30.01,12.0,East,10.4,-,N/A,,Overcast,90,2012-11-02 14:00:00
8:00 AM,53.6,50.0,88,30.01,15.0,East,6.9,-,N/A,,Overcast,100,2012-11-02 15:00:00
9:00 AM,55.4,50.0,82,30.02,15.0,ESE,9.2,-,N/A,,Overcast,120,2012-11-02 16:00:00
10:00 AM,55.4,50.0,82,30.01,15.0,East,6.9,-,N/A,,Overcast,90,2012-11-02 17:00:00
11:00 AM,56,52,80,30.02,15,East,4.6,,,,Overcast,90,2012-11-02 18:00:00
11:00 AM,55.4,51.8,88,30.02,15.0,East,5.8,-,N/A,,Overcast,90,2012-11-02 18:00:00
12:00 PM,59.0,51.8,77,30.01,15.0,ENE,5.8,-,N/A,,Overcast,70,2012-11-02 19:00:00
1:00 PM,57.2,51.8,82,30.00,15.0,ESE,9.2,-,N/A,,Overcast,110,2012-11-02 20:00:00
2:00 PM,57.2,51.8,82,29.99,15.0,East,11.5,-,N/A,,Overcast,90,2012-11-02 21:00:00
3:00 PM,59.0,50.0,72,29.97,15.0,East,9.2,-,N/A,,Overcast,100,2012-11-02 22:00:00
4:00 PM,59.0,50.0,72,29.97,15.0,ESE,10.4,-,N/A,,Overcast,110,2012-11-02 23:00:00
5:00 PM,57,51,73,29.96,15,East,10.4,,,,Overcast,100,2012-11-03 00:00:00
5:00 PM,57.2,50.0,77,29.96,15.0,East,9.2,-,N/A,,Overcast,100,2012-11-03 00:00:00
6:00 PM,57.2,50.0,77,29.96,15.0,East,8.1,-,N/A,,Overcast,100,2012-11-03 01:00:00
6:22 PM,57.2,-9999,N/A,-9999,15.0,East,6.9,-,N/A,Rain,Light Rain Showers,90,2012-11-03 01:22:00
7:00 PM,55.4,50.0,82,29.96,15.0,ESE,12.7,-,N/A,Rain,Light Rain Showers,110,2012-11-03 02:00:00
8:00 PM,53.6,48.2,82,29.96,12.0,ESE,11.5,-,N/A,Rain,Light Rain Showers,110,2012-11-03 03:00:00
9:00 PM,51.8,50.0,94,29.95,12.0,East,11.5,-,N/A,Rain,Light Rain Showers,90,2012-11-03 04:00:00
10:00 PM,53.6,50.0,88,29.95,12.0,ENE,11.5,-,N/A,Rain,Light Rain Showers,70,2012-11-03 05:00:00
11:00 PM,54,50,82,29.94,7,East,8.1,,,Rain,Light Rain Showers,90,2012-11-03 06:00:00
11:00 PM,53.6,50.0,88,29.94,8.0,East,8.1,-,N/A,Rain,Light Rain Showers,80,2012-11-03 06:00:00